• In Russia
  • List of Countries
  • For 7 days
  • Water Temperature
  • Satellite Maps
  • Weather Map
  • Weather Widgets
  • user-avatar
    Login

    Hourly Weather Hobart

    Today, 23 June, Friday

    Time Temperature Precipitation Wind Pressure Humidity
    00:00 +6°C° 0 mm 5 mps 747 mmHg 87%
    01:00 +6°C° 0 mm 5 mps 747 mmHg 89%
    02:00 +6°C° 0 mm 5 mps 746 mmHg 90%
    03:00 +6°C° 0 mm 5 mps 745 mmHg 90%
    04:00 +6°C° 0 mm 5 mps 744 mmHg 90%
    05:00 +7°C° 0 mm 6 mps 744 mmHg 90%
    06:00 +7°C° 0 mm 6 mps 743 mmHg 90%
    07:00 +7°C° 0 mm 6 mps 743 mmHg 90%
    08:00 +8°C° 0 mm 7 mps 742 mmHg 82%
    09:00 +9°C° 0 mm 8 mps 741 mmHg 75%
    10:00 +11°C° 0 mm 9 mps 741 mmHg 68%
    11:00 +11°C° 0.3 mm 8 mps 740 mmHg 69%
    12:00 +11°C° 0.3 mm 8 mps 739 mmHg 71%
    13:00 +11°C° 0.3 mm 8 mps 738 mmHg 72%
    14:00 +10°C° 0.5 mm 9 mps 738 mmHg 76%
    15:00 +7°C° 0.5 mm 9 mps 738 mmHg 80%
    16:00 +6°C° 0.5 mm 9 mps 738 mmHg 85%
    17:00 +5°C° 0.2 mm 9 mps 739 mmHg 83%
    18:00 +3°C° 0.2 mm 9 mps 739 mmHg 82%
    19:00 +2°C° 0.2 mm 9 mps 739 mmHg 81%
    20:00 +1°C° 0.1 mm 8 mps 740 mmHg 82%
    21:00 +1°C° 0.1 mm 8 mps 741 mmHg 83%
    22:00 0°C° 0.1 mm 8 mps 741 mmHg 84%
    23:00 0°C° 0.1 mm 7 mps 742 mmHg 84%

    Tomorrow, 24 June, Saturday

    Time Temperature Precipitation Wind Pressure Humidity
    00:00 -1°C° 0.1 mm 7 mps 742 mmHg 85%
    01:00 -1°C° 0.1 mm 6 mps 742 mmHg 85%
    02:00 -1°C° 0 mm 6 mps 742 mmHg 85%
    03:00 -1°C° 0 mm 6 mps 743 mmHg 85%
    04:00 -1°C° 0 mm 6 mps 743 mmHg 85%
    05:00 -1°C° 0 mm 6 mps 743 mmHg 85%
    06:00 0°C° 0 mm 7 mps 744 mmHg 84%
    07:00 +2°C° 0 mm 7 mps 744 mmHg 84%
    08:00 +2°C° 0 mm 7 mps 744 mmHg 80%
    09:00 +3°C° 0 mm 7 mps 745 mmHg 76%
    10:00 +4°C° 0 mm 7 mps 745 mmHg 72%
    11:00 +4°C° 0.1 mm 7 mps 745 mmHg 70%
    12:00 +5°C° 0.1 mm 7 mps 745 mmHg 68%
    13:00 +5°C° 0.1 mm 7 mps 745 mmHg 66%
    14:00 +5°C° 0 mm 6 mps 745 mmHg 69%
    15:00 +4°C° 0 mm 6 mps 745 mmHg 71%
    16:00 +5°C° 0 mm 5 mps 745 mmHg 74%
    17:00 +5°C° 0 mm 5 mps 745 mmHg 78%
    18:00 +3°C° 0 mm 5 mps 745 mmHg 81%
    19:00 +3°C° 0 mm 5 mps 745 mmHg 85%
    20:00 +3°C° 0 mm 5 mps 745 mmHg 85%
    21:00 +3°C° 0 mm 5 mps 745 mmHg 85%
    22:00 +3°C° 0 mm 5 mps 745 mmHg 85%
    23:00 +5°C° 0 mm 5 mps 744 mmHg 85%

    Day after tomorrow, 25 June, Sunday

    Time Temperature Precipitation Wind Pressure Humidity
    00:00 +5°C° 0 mm 5 mps 744 mmHg 84%
    01:00 +5°C° 0 mm 5 mps 744 mmHg 84%
    02:00 +4°C° 0 mm 6 mps 743 mmHg 85%
    03:00 +4°C° 0 mm 6 mps 743 mmHg 85%
    04:00 +4°C° 0 mm 6 mps 742 mmHg 86%
    05:00 +4°C° 0 mm 6 mps 742 mmHg 86%
    06:00 +5°C° 0 mm 6 mps 742 mmHg 85%
    07:00 +5°C° 0 mm 6 mps 741 mmHg 85%
    08:00 +6°C° 0 mm 7 mps 741 mmHg 82%
    09:00 +6°C° 0 mm 7 mps 741 mmHg 79%
    10:00 +7°C° 0 mm 8 mps 741 mmHg 75%
    11:00 +7°C° 0.1 mm 8 mps 740 mmHg 73%
    12:00 +8°C° 0.1 mm 9 mps 739 mmHg 70%
    13:00 +10°C° 0.1 mm 9 mps 738 mmHg 68%
    14:00 +9°C° 0.8 mm 8 mps 738 mmHg 75%
    15:00 +7°C° 0.8 mm 8 mps 738 mmHg 82%
    16:00 +6°C° 0.8 mm 7 mps 738 mmHg 89%
    17:00 +5°C° 0.5 mm 7 mps 739 mmHg 89%
    18:00 +4°C° 0.5 mm 7 mps 739 mmHg 89%
    19:00 +2°C° 0.5 mm 8 mps 740 mmHg 89%
    20:00 +2°C° 0 mm 8 mps 741 mmHg 89%
    21:00 +1°C° 0 mm 8 mps 741 mmHg 89%
    22:00 +1°C° 0 mm 8 mps 742 mmHg 89%
    23:00 +1°C° 0.1 mm 8 mps 743 mmHg 89%

    26 June, Monday

    Time Temperature Precipitation Wind Pressure Humidity
    00:00 +1°C° 0.1 mm 8 mps 743 mmHg 89%
    01:00 +2°C° 0.1 mm 7 mps 744 mmHg 89%
    02:00 +2°C° 0.1 mm 7 mps 745 mmHg 88%
    03:00 +2°C° 0.1 mm 7 mps 746 mmHg 87%
    04:00 +2°C° 0.1 mm 7 mps 746 mmHg 86%
    05:00 +2°C° 0 mm 7 mps 747 mmHg 86%
    06:00 +2°C° 0 mm 6 mps 748 mmHg 86%
    07:00 +2°C° 0 mm 6 mps 749 mmHg 87%
    08:00 +3°C° 0.1 mm 6 mps 750 mmHg 84%
    09:00 +3°C° 0.1 mm 6 mps 750 mmHg 82%
    10:00 +4°C° 0.1 mm 6 mps 751 mmHg 80%
    11:00 +4°C° 0.1 mm 6 mps 751 mmHg 78%
    12:00 +6°C° 0.1 mm 5 mps 751 mmHg 77%
    13:00 +6°C° 0.1 mm 5 mps 752 mmHg 75%
    14:00 +6°C° 0 mm 5 mps 752 mmHg 77%
    15:00 +6°C° 0 mm 5 mps 752 mmHg 78%
    16:00 +6°C° 0 mm 4 mps 752 mmHg 80%
    17:00 +5°C° 0 mm 4 mps 753 mmHg 84%
    18:00 +5°C° 0 mm 4 mps 753 mmHg 87%
    19:00 +4°C° 0 mm 4 mps 754 mmHg 90%
    20:00 +4°C° 0 mm 4 mps 754 mmHg 91%
    21:00 +4°C° 0 mm 4 mps 754 mmHg 92%
    22:00 +4°C° 0 mm 4 mps 755 mmHg 92%
    23:00 +5°C° 0 mm 4 mps 755 mmHg 92%

    27 June, Tuesday

    Time Temperature Precipitation Wind Pressure Humidity
    00:00 +5°C° 0 mm 4 mps 755 mmHg 92%
    01:00 +5°C° 0 mm 4 mps 755 mmHg 91%
    02:00 +4°C° 0 mm 4 mps 755 mmHg 93%
    03:00 +4°C° 0 mm 4 mps 755 mmHg 95%
    04:00 +3°C° 0 mm 4 mps 755 mmHg 97%
    05:00 +3°C° 0 mm 4 mps 755 mmHg 97%
    06:00 +3°C° 0 mm 4 mps 755 mmHg 97%
    07:00 +3°C° 0 mm 4 mps 755 mmHg 97%
    08:00 +5°C° 0 mm 4 mps 756 mmHg 92%
    09:00 +6°C° 0 mm 4 mps 756 mmHg 87%
    10:00 +7°C° 0 mm 4 mps 756 mmHg 82%
    11:00 +8°C° 0 mm 4 mps 756 mmHg 78%
    12:00 +8°C° 0 mm 5 mps 755 mmHg 73%
    13:00 +9°C° 0 mm 5 mps 755 mmHg 69%
    14:00 +9°C° 0 mm 5 mps 755 mmHg 72%
    15:00 +8°C° 0 mm 4 mps 755 mmHg 75%
    16:00 +8°C° 0 mm 4 mps 755 mmHg 79%
    17:00 +7°C° 0 mm 4 mps 755 mmHg 84%
    18:00 +6°C° 0 mm 4 mps 755 mmHg 90%
    19:00 +4°C° 0 mm 4 mps 755 mmHg 96%
    20:00 +5°C° 0 mm 4 mps 755 mmHg 95%
    21:00 +5°C° 0 mm 4 mps 755 mmHg 95%
    22:00 +5°C° 0 mm 4 mps 755 mmHg 94%
    23:00 +5°C° 0 mm 4 mps 755 mmHg 94%

    28 June, Wednesday

    Time Temperature Precipitation Wind Pressure Humidity
    00:00 +5°C° 0 mm 5 mps 755 mmHg 93%
    01:00 +5°C° 0 mm 5 mps 755 mmHg 93%
    02:00 +5°C° 0.1 mm 5 mps 755 mmHg 94%
    03:00 +5°C° 0.1 mm 5 mps 755 mmHg 95%
    04:00 +3°C° 0.1 mm 5 mps 755 mmHg 96%
    05:00 +3°C° 0.3 mm 5 mps 755 mmHg 96%
    06:00 +3°C° 0.3 mm 5 mps 756 mmHg 96%
    07:00 +3°C° 0.3 mm 5 mps 756 mmHg 96%
    08:00 +5°C° 0.1 mm 4 mps 756 mmHg 93%
    09:00 +5°C° 0.1 mm 4 mps 757 mmHg 90%
    10:00 +7°C° 0.1 mm 3 mps 757 mmHg 87%
    11:00 +7°C° 0 mm 3 mps 757 mmHg 81%
    12:00 +8°C° 0 mm 3 mps 756 mmHg 75%
    13:00 +9°C° 0 mm 2 mps 756 mmHg 68%
    14:00 +8°C° 0 mm 2 mps 756 mmHg 70%
    15:00 +8°C° 0 mm 2 mps 756 mmHg 71%
    16:00 +8°C° 0 mm 1 mps 756 mmHg 72%
    17:00 +7°C° 0 mm 1 mps 756 mmHg 76%
    18:00 +6°C° 0 mm 1 mps 756 mmHg 79%
    19:00 +5°C° 0 mm 1 mps 756 mmHg 82%
    20:00 +4°C° 0 mm 1 mps 756 mmHg 83%
    21:00 +4°C° 0 mm 1 mps 756 mmHg 84%
    22:00 +4°C° 0 mm 1 mps 756 mmHg 85%
    23:00 +3°C° 0 mm 1 mps 755 mmHg 88%
    Show more